DW5444 Weather Reports


time (UTC)temp
C
wind
direction
speed
KPH
gust
KPH
rain 1hr
cm
rain 24hr
cm
rain mn
cm
humidity
%
barometer
mb
20260903074540 10 208 1.6 3.2 0.05 0.71 0.05 90 1008.5
20260903073040 10 213 1.6 3.2 0.03 0.69 0.03 89 1008.3
20260903071535 10 214 1.6 8.0 0.00 0.66 0.00 87 1008.1
20260903070032 10 222 1.6 8.0 0.00 0.66 0.00 86 1007.9
20260903064531 10 208 1.6 8.0 0.00 0.66 0.66 85 1007.8
20260903063103 10 267 9.7 14.5 0.03 0.66 0.66 85 1007.7
20260903061530 10 95 4.8 11.3 0.05 0.66 0.66 84 1007.7
20260903060030 10 95 3.2 9.7 0.08 0.66 0.66 86 1007.6
20260903054529 10 132 4.8 9.7 0.13 0.66 0.66 87 1007.8
20260903053028 10 104 3.2 12.9 0.13 0.64 0.64 88 1007.8
20260903051528 10 90 6.4 11.3 0.10 0.61 0.61 87 1008.0
20260903050027 10 194 4.8 11.3 0.10 0.58 0.58 88 1008.0
20260903044526 10 87 6.4 12.9 0.18 0.53 0.53 87 1008.1
20260903043027 10 132 6.4 12.9 0.18 0.51 0.51 86 1008.0
20260903041525 11 130 4.8 14.5 0.20 0.51 0.51 86 1008.0
20260903040025 11 194 6.4 17.7 0.25 0.48 0.48 88 1008.1
20260903034528 11 247 9.7 16.1 0.15 0.36 0.36 90 1007.8
20260903033021 11 180 1.6 6.4 0.15 0.33 0.33 87 1007.5
20260903031519 12 217 3.2 9.7 0.13 0.30 0.30 85 1007.4
20260903030019 12 112 8.0 16.1 0.08 0.23 0.23 84 1007.2
20260903024518 12 122 4.8 12.9 0.05 0.20 0.20 84 1007.2
20260903023019 12 87 6.4 12.9 0.05 0.18 0.18 84 1007.1
20260903021519 12 123 8.0 20.9 0.08 0.18 0.18 84 1007.2
20260903020016 12 69 6.4 19.3 0.05 0.15 0.15 84 1007.1
20260903014518 12 135 9.7 17.7 0.08 0.15 0.15 84 1007.1
20260903013015 12 71 8.0 20.9 0.08 0.13 0.13 84 1007.1
20260903011514 12 104 8.0 20.9 0.08 0.10 0.10 82 1007.1
20260903010016 12 121 12.9 22.5 0.08 0.10 0.10 81 1007.0
20260903004514 12 116 11.3 22.5 0.08 0.08 0.08 80 1007.2
20260903003012 12 138 11.3 24.1 0.05 0.05 0.05 80 1007.1
20260903001511 12 135 11.3 22.5 0.03 0.03 0.03 79 1007.1
20260903000017 13 137 9.7 25.7 0.03 0.03 0.03 77 1006.8
20260902234515 13 146 14.5 24.1 0.00 0.00 0.00 73 1006.9
20260902233010 13 177 9.7 22.5 0.00 0.00 0.00 71 1006.8
20260902231524 14 258 8.0 24.1 0.00 0.00 0.00 69 1006.8
20260902230008 15 236 9.7 17.7 0.00 0.00 0.00 67 1006.7
20260902224507 15 156 9.7 22.5 0.00 0.00 0.00 62 1006.5
20260902223007 15 132 9.7 24.1 0.00 0.00 0.00 59 1006.4
20260902221509 16 147 14.5 24.1 0.00 0.00 0.00 54 1006.5
20260902220008 17 202 12.9 25.7 0.00 0.00 0.00 47 1006.5
20260902214505 17 226 9.7 27.4 0.00 0.00 0.00 47 1006.4
20260902213005 18 241 12.9 25.7 0.00 0.00 0.00 41 1006.3
20260902211507 19 222 14.5 29.0 0.00 0.00 0.00 39 1006.1
20260902210004 19 225 12.9 24.1 0.00 0.00 0.00 41 1005.7
20260902204502 20 132 8.0 17.7 0.00 0.00 0.00 35 1005.1
20260902203002 21 234 11.3 29.0 0.00 0.00 0.00 35 1005.1
20260902201600 22 167 12.9 30.6 0.00 0.00 0.00 34 1005.2
20260902200112 21 229 14.5 25.7 0.00 0.00 0.00 38 1005.2
20260902194559 20 208 9.7 25.7 0.00 0.00 0.00 39 1005.6
20260902193053 20 145 9.7 25.7 0.00 0.00 0.00 38 1005.7
20260902191551 20 226 16.1 25.7 0.00 0.00 0.00 39 1005.7
20260902190049 20 178 12.9 20.9 0.00 0.00 0.00 40 1005.8
20260902184557 20 234 8.0 24.1 0.00 0.00 0.00 41 1005.8
20260902183046 20 204 11.3 22.5 0.00 0.00 0.00 40 1006.0
20260902181545 20 204 12.9 22.5 0.00 0.00 0.00 42 1006.1
20260902180101 18 294 4.8 16.1 0.00 0.00 0.00 49 1006.1
20260902174540 18 263 9.7 16.1 0.00 0.00 0.00 48 1006.0
20260902173038 18 233 8.0 14.5 0.00 0.00 0.00 48 1006.2
20260902171534 17 230 3.2 12.9 0.00 0.00 0.00 51 1006.4
20260902170033 17 278 8.0 12.9 0.00 0.00 0.00 53 1006.7
20260902164532 17 278 3.2 12.9 0.00 0.00 0.00 54 1006.7
20260902163028 16 309 4.8 8.0 0.00 0.00 0.00 55 1006.7
20260902161528 16 272 1.6 6.4 0.00 0.00 0.00 59 1006.9
20260902160021 15 282 4.8 9.7 0.00 0.00 0.00 60 1007.1
20260902154527 15 278 3.2 8.0 0.00 0.00 0.00 63 1007.3
20260902153016 14 261 4.8 9.7 0.00 0.00 0.00 65 1007.3
20260902151512 13 230 8.0 12.9 0.00 0.00 0.00 67 1007.3
20260902150012 13 211 6.4 9.7 0.00 0.00 0.00 68 1007.2
20260902144524 12 123 3.2 6.4 0.00 0.00 0.00 71 1007.4
20260902143004 10 119 3.2 8.0 0.00 0.00 0.00 79 1007.4
20260902141505 -17 0.0 0.0 0.00 0.00 0.00 1007.5
20260902140057 -17 0.0 0.0 0.00 0.00 0.00 1007.4
20260902134553 -17 0.0 0.0 0.00 0.00 0.00 1007.4
20260902133049 -17 0.0 0.0 0.00 0.00 0.00 1007.6
20260902131544 -17 0.0 0.0 0.00 0.00 0.00 1007.4
20260902130039 -17 0.0 0.0 0.00 0.00 0.00 1007.4
20260902124536 -17 0.0 0.0 0.00 0.00 0.00 1007.4
20260902123033 -17 0.0 0.0 0.00 0.00 0.00 1007.4
20260902121527 -17 0.0 0.0 0.00 0.00 0.00 1007.6
20260902120022 10 225 6.4 11.3 0.00 0.00 0.00 74 1007.8
20260902114529 11 189 4.8 11.3 0.00 0.00 0.00 74 1007.9
20260902113033 11 166 4.8 11.3 0.00 0.00 0.00 74 1007.9
20260902111523 11 124 8.0 17.7 0.00 0.00 0.00 74 1007.9
20260902110019 11 126 8.0 14.5 0.00 0.00 0.00 74 1007.9
20260902104518 10 123 8.0 12.9 0.00 0.00 0.00 76 1007.8
20260902103026 10 126 6.4 12.9 0.00 0.00 0.00 77 1007.8
20260902101519 10 150 6.4 11.3 0.00 0.00 0.00 79 1007.7
20260902100017 10 146 3.2 6.4 0.00 0.00 0.00 80 1007.5
20260902094515 10 140 3.2 4.8 0.00 0.00 0.00 81 1007.2
20260902093009 10 156 3.2 4.8 0.00 0.00 0.00 81 1007.4
20260902091509 10 184 3.2 8.0 0.00 0.00 0.00 81 1007.6
20260902090006 10 135 4.8 9.7 0.00 0.00 0.00 80 1007.8
20260902084502 10 159 3.2 8.0 0.00 0.00 0.00 80 1007.8
20260902083101 11 199 3.2 11.3 0.00 0.00 0.00 79 1007.7
20260902081605 11 218 4.8 9.7 0.00 0.00 0.00 79 1007.7
20260902080056 11 206 6.4 12.9 0.00 0.00 0.00 78 1007.9